Regional Weather Roundup
Issued by NWS

Home | Current Version | Previous Version | Text Only | Print | Product List | Glossary On
Versions: 1 2 3 4 5 6 7 8 9 10 11 12 13 14 15 16 17 18 19 20 21 22 23 24 25 26 27 28 29 30 31 32 33 34 35 36 37 38 39 40 41 42 43 44 45 46 47 48 49 50
000
ASUS43 KDTX 281510
RWRMI
MICHIGAN HOURLY REGIONAL WEATHER ROUNDUP
NATIONAL WEATHER SERVICE DETROIT/PONTIAC MI
1100 AM EDT SAT MAR 28 2015

NOTE: "FAIR" INDICATES FEW OR NO CLOUDS BELOW 12,000 FEET WITH NO
SIGNIFICANT WEATHER AND/OR OBSTRUCTION TO VISIBILITY.

MIZ047>049-052>055-059>063-066>070-074>076-081>083-281600-
SOUTHEAST LOWER MICHIGAN

CITY           SKY/WX    TMP DP  RH WIND       PRES   REMARKS
ADRIAN         SUNNY     25   9  50 N12       30.30R
ALMA           SUNNY     25   8  48 NE5       30.32R
ANN ARBOR      MOSUNNY   25   9  50 N9        30.28R
BAD AXE        PTSUNNY   23   9  54 N12       30.29R
DETROIT CITY   MOSUNNY   26   8  46 N12G18    30.29R
DETROIT        PTSUNNY   28   9  44 N10G18    30.29R
FLINT          MOSUNNY   27  10  49 N9        30.29R
GROSSE ILE     CLOUDY    27  10  50 NE15G21   30.27S
HILLSDALE      SUNNY     24   8  49 N5        30.26S
HOWELL         SUNNY     24  10  54 N6        30.28R

CITY           SKY/WX    TMP DP  RH WIND       PRES   REMARKS
JACKSON        SUNNY     24   6  46 VRB6      30.28R
LAMBERTVILLE   MOSUNNY   28  10  47 N8        30.29S
LANSING        SUNNY     24   7  48 VRB3      30.31R
LAPEER         NOT AVBL
MASON          SUNNY     24   8  50 N9        30.29S
MONROE         PTSUNNY   25  10  54 N9G17     30.28R
MT. CLEMENS    MOSUNNY   23   9  56 N8        30.26R
PONTIAC        PTSUNNY   22  10  60 N8        30.25S
PORT HOPE        N/A     25  11  55 N8        30.28R
PORT HURON     MOSUNNY   23  10  58 N10       30.29R
TRI CITIES     SUNNY     26   8  46 N7        30.31R
YPSILANTI      MOSUNNY   29   9  43 N16       30.29R
$$
MIZ043>046-050>051-056>058-064>065-071>073-077>080-281600-
SOUTHWEST LOWER MICHIGAN

CITY           SKY/WX    TMP DP  RH WIND       PRES   REMARKS
BATTLE CREEK   SUNNY     24   7  48 VRB3      30.30S
BENTON HARBOR  SUNNY     23   8  52 VRB6      30.34R
BIG RAPIDS     SUNNY     24   6  47 N3        30.31R
COLDWATER      SUNNY     23   6  50 CALM      30.29S
HOLLAND        SUNNY     24   4  42 NW3       30.34R
GRAND RAPIDS   SUNNY     24   2  38 CALM      30.33R
KALAMAZOO      SUNNY     25   3  38 E6        30.32R
MARSHALL       SUNNY     22   4  45 CALM      30.29S
MUSKEGON       SUNNY     25   1  35 VRB3      30.35R
$$
MIZ016>042-281600-
NORTHERN LOWER MICHIGAN

CITY           SKY/WX    TMP DP  RH WIND       PRES   REMARKS
ALPENA         SUNNY     25   9  50 N6        30.31R
BEAVER ISLAND  SUNNY     23  10  56 W5        30.32S
BELLAIRE       SUNNY     20   8  61 S3        30.34S
CADILLAC       SUNNY     23   4  42 NW5       30.27R
CHARLEVOIX     SUNNY     20  12  68 N6        30.36S
FRANKFORT      SUNNY     26  -4  27 SE3       30.34S
GAYLORD        SUNNY     20   4  50 VRB3      30.26S
GRAYLING       SUNNY     23   5  46 N5        30.28S
HARBOR SPRINGS SUNNY     17   6  63 SW6       30.32S
HOUGHTON LAKE  SUNNY     18   9  68 SW6       30.29R
MANISTEE       SUNNY     21   7  53 CALM      30.35S
OSCODA         SUNNY     27   9  46 NE7       30.29S
PELLSTON       SUNNY     21   9  59 N6        30.32R
TRAVERSE CITY  SUNNY     20   4  50 SW3       30.33S
$$
MIZ007>008-015-281600-
EASTERN UPPER MICHIGAN

CITY           SKY/WX    TMP DP  RH WIND       PRES   REMARKS
KINROSS        SUNNY     27  18  69 CALM      30.29F
MACKINAC ISLAN SUNNY     16   9  73 SW5       30.31R
NEWBERRY       SUNNY     18   8  64 W5        30.29S
S. S. MARIE    SUNNY     19  11  70 W3        30.29F
$$
MIZ004>006-011>014-085-281600-
CENTRAL UPPER MICHIGAN

CITY           SKY/WX    TMP DP  RH WIND       PRES   REMARKS
MANISTIQUE     SUNNY     21   9  61 S6        30.32R
ESCANABA       SUNNY     21   5  49 SE3       30.32S
MENOMINEE      SUNNY     23  10  58 E7        30.33R
SAWYER-GWINN   SUNNY     19   1  45 SW7       30.25S
$$
MIZ001>003-009>011-084-281600-
WESTERN UPPER MICHIGAN

CITY           SKY/WX    TMP DP  RH WIND       PRES   REMARKS
IRON MOUNTAIN  SUNNY     22   6  50 VRB3      30.26R
HOUGHTON       SUNNY     21   6  52 CALM      30.22S
COPPER HARBOR    N/A     25   5  42 SW6       30.25S
IRONWOOD       SUNNY     28  10  47 CALM      30.20F
$$

ABBREVIATIONS USED IN REMARKS
   TC - TEMPERATURE IN CELSIUS
  WCI - WIND CHILL INDEX
   HX - HEAT INDEX
  VSB - VISIBILITY



USA.gov is the U.S. government's official web portal to all federal, state and local government web resources and services.